Regional Weather Roundup
Issued by NWS

Home | Current Version | Previous Version | Text Only | Print | Product List | Glossary On
Versions: 1 2 3 4 5 6 7 8 9 10 11 12 13 14 15 16 17 18 19 20 21 22 23 24 25 26 27 28 29 30 31 32 33 34 35 36 37 38 39 40 41 42 43 44 45 46 47 48 49 50
080
ASUS43 KBIS 180802
RWRND

NORTH DAKOTA REGIONAL WEATHER ROUNDUP
NATIONAL WEATHER SERVICE BISMARCK ND
300 AM CDT WED OCT 18 2017

NOTE: "FAIR" INDICATES FEW OR NO CLOUDS BELOW 12,000 FEET WITH NO
SIGNIFICANT WEATHER AND/OR OBSTRUCTIONS TO VISIBILITY.


NDZ001>003-009>011-017-180900-
NORTHWEST NORTH DAKOTA

CITY           SKY/WX    TMP DP  RH WIND       PRES   REMARKS
WILLISTON      CLOUDY    55  34  45 NW24G35   29.69R
MINOT          CLOUDY    66  28  24 W35G46    29.56R
MINOT AFB      CLEAR     63  31  30 NW29G39   29.53R
$$

NDZ018>021-031>035-040>046-180900-
SOUTHWEST NORTH DAKOTA

CITY           SKY/WX    TMP DP  RH WIND       PRES   REMARKS
BISMARCK       CLOUDY    52  30  43 W5        29.61S
DICKINSON      CLOUDY    60  22  23 W18       29.65R
GARRISON         N/A     58  29  33 W12       29.57R
HETTINGER ARPT CLOUDY    55  25  31 W6        29.72R
$$

NDZ004>008-012>016-024-026-027-054-180900-
NORTHEAST NORTH DAKOTA

CITY           SKY/WX    TMP DP  RH WIND       PRES   REMARKS
GRAND FORKS    CLOUDY    52  39  61 S10       29.54F
GRND FRKS AFB  PTCLDY    61  36  39 SW13      29.53F
DEVILS LAKE    CLOUDY    59  39  47 SW20G26   29.50F
$$

NDZ022-023-025-028>030-036>039-047>053-180900-
SOUTHEAST NORTH DAKOTA

CITY           SKY/WX    TMP DP  RH WIND       PRES   REMARKS
FARGO          CLOUDY    49  41  74 S8        29.65R
JAMESTOWN      CLOUDY    50  37  61 S12       29.61S
$$





USA.gov is the U.S. government's official web portal to all federal, state and local government web resources and services.